Location: Nitra
(0.0000°N, 18.0833°E)
Time: 04:19:22
(UTC+01:00)

ARIANE 5 DEB (SYLDA) - Pass Details

Date: 25 September 2022
Orbit: 911 x 35843 km, 2.2° (Epoch: 30 November)

Event Time Altitude Azimuth Distance (km) Brightness Sun altitude
Rises 11:04:50 0° 271° (W) 13,253 8.6 66.3°
Reaches altitude 10° 11:13:36 10° 272° (W) 14,377 8.9 68.5°
Drops below altitude 10° 17:46:09 10° 272° (W) 36,577 14.3 13.3°
Maximum altitude 21:01:21 81° 183° (S) 1,868 4.2 -35.5°
Enters shadow 21:02:07 75° 130° (SE) 1,774 4.0 -35.7°
